Location: Cheyres
(46.8153°N, 6.7877°E)
Time: 02:53:47
(UTC+00:00)

Gbstr 26 Del rocket - Pass Details

Date: 11 May 2021
Orbit: 493 x 1263 km, 51.8° (Epoch: 18 June)

Event Time Altitude Azimuth Distance (km) Brightness Sun altitude
Rises 22:10:01 0° 293° (WNW) 4,102 7.9 -22.7°
Reaches altitude 10° 22:13:01 10° 295° (WNW) 3,060 7.2 -22.8°
Maximum altitude 22:20:28 80° 23° (NNE) 1,033 4.1 -23.2°
Enters shadow 22:23:50 30° 106° (ESE) 1,613 4.8 -23.4°
